This is the latest recevied weather packets stored in our database for station/object KB4MOX. If no packets are shown the sender has not sent any weather packets the latest 10 day(s).
| Time | Temp. | Humidity | Pressure | Rain* | Wind** | Luminosity | Snow |
|---|---|---|---|---|---|---|---|
| 1788185990 | 27.78° C | 79% | 1021.1 hPa | 0 mm | - | 162 W/m² | - |
| 1788185690 | 27.22° C | 80% | 1021.4 hPa | 0 mm | - | 88 W/m² | - |
| 1788185384 | 27.78° C | 81% | 1021.2 hPa | 0 mm | - | 79 W/m² | - |
| 1788185078 | 27.78° C | 81% | 1021.2 hPa | 0 mm | - | 82 W/m² | - |
| 1788184778 | 27.22° C | 81% | 1021.3 hPa | 0 mm | - | 61 W/m² | - |
| 1788184477 | 27.22° C | 83% | 1021 hPa | 0 mm | - | 173 W/m² | - |
| 1788184172 | 26.67° C | 83% | 1021.3 hPa | 0 mm | - | 66 W/m² | - |
| 1788183869 | 26.67° C | 83% | 1021.5 hPa | 0 mm | - | 82 W/m² | - |
| 1788183568 | 26.67° C | 84% | 1021.3 hPa | 0 mm | - | 48 W/m² | - |
| 1788183268 | 26.67° C | 86% | 1021.2 hPa | 0 mm | - | 47 W/m² | - |
| 1788182963 | 26.11° C | 86% | 1021.3 hPa | 0 mm | - | 40 W/m² | - |
| 1788182659 | 26.11° C | 88% | 1021.3 hPa | 0 mm | - | 42 W/m² | - |
| 1788182358 | 25.56° C | 88% | 1021.2 hPa | 0 mm | - | 41 W/m² | - |
| 1788182054 | 25.56° C | 89% | 1021.1 hPa | 0 mm | - | 37 W/m² | - |
| 1788181749 | 25.56° C | 90% | 1021.1 hPa | 0 mm | - | 35 W/m² | - |
| 1788181445 | 25° C | 91% | 1021.2 hPa | 0 mm | - | 35 W/m² | - |
| 1788181143 | 25° C | 93% | 1021.3 hPa | 0 mm | - | 34 W/m² | - |
| 1788180839 | 24.44° C | 94% | 1021.2 hPa | 0 mm | - | 34 W/m² | - |
| 1788180535 | 24.44° C | 95% | 1021.4 hPa | 0 mm | - | 33 W/m² | - |
| 1788180231 | 23.89° C | 96% | 1021.2 hPa | 0 mm | - | 32 W/m² | - |
| 1788179931 | 23.89° C | 97% | 1021.1 hPa | 0 mm | - | 31 W/m² | - |
| 1788179630 | 23.33° C | 97% | 1021.1 hPa | 0 mm | - | 31 W/m² | - |
| 1788179325 | 23.33° C | 97% | 1021 hPa | 0 mm | - | 31 W/m² | - |
| 1788179020 | 22.78° C | 97% | 1020.9 hPa | 0 mm | - | 28 W/m² | - |
| 1788178720 | 22.78° C | 97% | 1021 hPa | 0 mm | - | 27 W/m² | - |
* Rain latest hour (hover to see other rain measurements)
** Current wind speed in m/s (hover to see current wind gust speed)